Year,Month,Day,Hour,Minute,Value (Times are PST for windgust in km/hr)
2016,10,14,00,00,20.90
2016,10,14,00,01,20.90
2016,10,14,00,02,29.00
2016,10,14,00,03,25.70
2016,10,14,00,04,20.90
2016,10,14,00,05,27.40
2016,10,14,00,06,29.00
2016,10,14,00,07,29.00
2016,10,14,00,08,33.80
2016,10,14,00,09,25.70
2016,10,14,00,10,30.60
2016,10,14,00,11,24.20
2016,10,14,00,12,25.70
2016,10,14,00,13,29.00
2016,10,14,00,14,29.00
2016,10,14,00,15,32.20
2016,10,14,00,16,37.00
2016,10,14,00,17,33.80
2016,10,14,00,18,30.60
2016,10,14,00,19,27.40
2016,10,14,00,20,33.80
2016,10,14,00,21,33.80
2016,10,14,00,22,33.80
2016,10,14,00,23,30.60
2016,10,14,00,24,30.60
2016,10,14,00,25,29.00
2016,10,14,00,26,37.00
2016,10,14,00,27,29.00
2016,10,14,00,28,29.00
2016,10,14,00,29,22.50
2016,10,14,00,30,24.20
2016,10,14,00,31,25.70
2016,10,14,00,32,24.20
2016,10,14,00,33,30.60
2016,10,14,00,34,25.70
2016,10,14,00,35,27.40
2016,10,14,00,36,27.40
2016,10,14,00,37,24.20
2016,10,14,00,38,24.20
2016,10,14,00,39,27.40
2016,10,14,00,40,29.00
2016,10,14,00,41,32.20
2016,10,14,00,42,30.60
2016,10,14,00,43,30.60
2016,10,14,00,44,24.20
2016,10,14,00,45,29.00
2016,10,14,00,46,22.50
2016,10,14,00,47,25.70
2016,10,14,00,48,22.50
2016,10,14,00,49,20.90
2016,10,14,00,50,22.50
2016,10,14,00,51,30.60
2016,10,14,00,52,27.40
2016,10,14,00,53,22.50
2016,10,14,00,54,20.90
2016,10,14,00,55,22.50
2016,10,14,00,56,25.70
2016,10,14,00,57,30.60
2016,10,14,00,58,30.60
2016,10,14,00,59,24.20
2016,10,14,01,00,30.60
2016,10,14,01,01,30.60
2016,10,14,01,02,30.60
2016,10,14,01,03,27.40
2016,10,14,01,04,30.60
2016,10,14,01,05,37.00
2016,10,14,01,06,37.00
2016,10,14,01,07,24.20
2016,10,14,01,08,27.40
2016,10,14,01,09,30.60
2016,10,14,01,10,33.80
2016,10,14,01,11,29.00
2016,10,14,01,12,32.20
2016,10,14,01,13,27.40
2016,10,14,01,14,37.00
2016,10,14,01,15,29.00
2016,10,14,01,16,29.00
2016,10,14,01,17,25.70
2016,10,14,01,18,30.60
2016,10,14,01,19,22.50
2016,10,14,01,20,33.80
2016,10,14,01,21,33.80
2016,10,14,01,22,30.60
2016,10,14,01,23,20.90
2016,10,14,01,24,20.90
2016,10,14,01,25,19.30
2016,10,14,01,26,14.50
2016,10,14,01,27,17.70
2016,10,14,01,28,20.90
2016,10,14,01,29,14.50
2016,10,14,01,30,14.50
2016,10,14,01,31,19.30
2016,10,14,01,32,14.50
2016,10,14,01,33,20.90
2016,10,14,01,34,20.90
2016,10,14,01,35,20.90
2016,10,14,01,36,17.70
2016,10,14,01,37,14.50
2016,10,14,01,38,12.90
2016,10,14,01,39,9.60
2016,10,14,01,40,8.10
2016,10,14,01,41,11.30
2016,10,14,01,42,6.40
2016,10,14,01,43,8.10
2016,10,14,01,44,6.40
2016,10,14,01,45,11.30
2016,10,14,01,46,9.60
2016,10,14,01,47,8.10
2016,10,14,01,48,11.30
2016,10,14,01,49,12.90
2016,10,14,01,50,11.30
2016,10,14,01,51,11.30
2016,10,14,01,52,8.10
2016,10,14,01,53,8.10
2016,10,14,01,54,12.90
2016,10,14,01,55,11.30
2016,10,14,01,56,9.60
2016,10,14,01,57,9.60
2016,10,14,01,58,9.60
2016,10,14,01,59,8.10
2016,10,14,02,00,9.60
2016,10,14,02,01,8.10
2016,10,14,02,02,9.60
2016,10,14,02,03,8.10
2016,10,14,02,04,9.60
2016,10,14,02,05,8.10
2016,10,14,02,06,3.20
2016,10,14,02,07,6.40
2016,10,14,02,08,8.10
2016,10,14,02,09,3.20
2016,10,14,02,12,3.20
2016,10,14,02,13,3.20
2016,10,14,02,14,8.10
2016,10,14,02,15,8.10
2016,10,14,02,16,9.60
2016,10,14,02,17,9.60
2016,10,14,02,18,8.10
2016,10,14,02,19,6.40
2016,10,14,02,20,3.20
2016,10,14,02,21,8.10
2016,10,14,02,22,8.10
2016,10,14,02,23,8.10
2016,10,14,02,24,6.40
2016,10,14,02,25,6.40
2016,10,14,02,26,6.40
2016,10,14,02,27,6.40
2016,10,14,02,28,6.40
2016,10,14,02,29,6.40
2016,10,14,02,30,6.40
2016,10,14,02,31,6.40
2016,10,14,02,32,6.40
2016,10,14,02,33,3.20
2016,10,14,02,34,6.40
2016,10,14,02,35,3.20
2016,10,14,02,36,6.40
2016,10,14,02,37,8.10
2016,10,14,02,38,8.10
2016,10,14,02,39,6.40
2016,10,14,02,40,6.40
2016,10,14,02,41,6.40
2016,10,14,02,42,6.40
2016,10,14,02,43,6.40
2016,10,14,02,44,8.10
2016,10,14,02,45,9.60
2016,10,14,02,46,9.60
2016,10,14,02,47,8.10
2016,10,14,02,48,8.10
2016,10,14,02,49,8.10
2016,10,14,02,50,3.20
2016,10,14,02,51,3.20
2016,10,14,02,52,4.80
2016,10,14,02,53,3.20
2016,10,14,02,55,6.40
2016,10,14,02,56,8.10
2016,10,14,02,57,8.10
2016,10,14,02,58,8.10
2016,10,14,02,59,8.10
2016,10,14,03,00,8.10
2016,10,14,03,01,3.20
2016,10,14,03,02,3.20
2016,10,14,03,03,6.40
2016,10,14,03,04,6.40
2016,10,14,03,05,3.20
2016,10,14,03,06,6.40
2016,10,14,03,07,4.80
2016,10,14,03,08,4.80
2016,10,14,03,09,9.60
2016,10,14,03,10,11.30
2016,10,14,03,11,11.30
2016,10,14,03,12,12.90
2016,10,14,03,13,9.60
2016,10,14,03,14,11.30
2016,10,14,03,15,9.60
2016,10,14,03,16,8.10
2016,10,14,03,17,11.30
2016,10,14,03,18,8.10
2016,10,14,03,19,11.30
2016,10,14,03,20,9.60
2016,10,14,03,21,14.50
2016,10,14,03,22,12.90
2016,10,14,03,23,17.70
2016,10,14,03,24,17.70
2016,10,14,03,25,20.90
2016,10,14,03,26,19.30
2016,10,14,03,27,17.70
2016,10,14,03,28,17.70
2016,10,14,03,29,14.50
2016,10,14,03,30,12.90
2016,10,14,03,31,12.90
2016,10,14,03,32,17.70
2016,10,14,03,33,17.70
2016,10,14,03,34,17.70
2016,10,14,03,35,16.10
2016,10,14,03,36,17.70
2016,10,14,03,37,19.30
2016,10,14,03,38,17.70
2016,10,14,03,39,14.50
2016,10,14,03,40,12.90
2016,10,14,03,41,9.60
2016,10,14,03,42,12.90
2016,10,14,03,43,6.40
2016,10,14,03,44,8.10
2016,10,14,03,45,12.90
2016,10,14,03,46,12.90
2016,10,14,03,47,17.70
2016,10,14,03,48,12.90
2016,10,14,03,49,8.10
2016,10,14,03,50,12.90
2016,10,14,03,51,8.10
2016,10,14,03,52,9.60
2016,10,14,03,53,11.30
2016,10,14,03,54,19.30
2016,10,14,03,55,9.60
2016,10,14,03,56,9.60
2016,10,14,03,57,16.10
2016,10,14,03,58,9.60
2016,10,14,03,59,12.90
2016,10,14,04,00,8.10
2016,10,14,04,01,8.10
2016,10,14,04,02,8.10
2016,10,14,04,03,14.50
2016,10,14,04,04,9.60
2016,10,14,04,05,8.10
2016,10,14,04,06,8.10
2016,10,14,04,07,14.50
2016,10,14,04,08,17.70
2016,10,14,04,09,29.00
2016,10,14,04,10,14.50
2016,10,14,04,11,22.50
2016,10,14,04,12,22.50
2016,10,14,04,13,24.20
2016,10,14,04,14,19.30
2016,10,14,04,15,17.70
2016,10,14,04,16,22.50
2016,10,14,04,17,19.30
2016,10,14,04,18,17.70
2016,10,14,04,19,20.90
2016,10,14,04,20,20.90
2016,10,14,04,21,20.90
2016,10,14,04,22,19.30
2016,10,14,04,23,24.20
2016,10,14,04,24,14.50
2016,10,14,04,25,16.10
2016,10,14,04,26,8.10
2016,10,14,04,27,9.60
2016,10,14,04,28,9.60
2016,10,14,04,29,12.90
2016,10,14,04,30,12.90
2016,10,14,04,31,12.90
2016,10,14,04,32,14.50
2016,10,14,04,33,19.30
2016,10,14,04,34,11.30
2016,10,14,04,35,8.10
2016,10,14,04,36,12.90
2016,10,14,04,37,12.90
2016,10,14,04,38,19.30
2016,10,14,04,39,19.30
2016,10,14,04,40,19.30
2016,10,14,04,41,11.30
2016,10,14,04,42,19.30
2016,10,14,04,43,20.90
2016,10,14,04,44,22.50
2016,10,14,04,45,32.20
2016,10,14,04,46,30.60
2016,10,14,04,47,30.60
2016,10,14,04,48,25.70
2016,10,14,04,49,19.30
2016,10,14,04,50,22.50
2016,10,14,04,51,24.20
2016,10,14,04,52,20.90
2016,10,14,04,53,33.80
2016,10,14,04,54,25.70
2016,10,14,04,55,30.60
2016,10,14,04,56,32.20
2016,10,14,04,57,30.60
2016,10,14,04,58,27.40
2016,10,14,04,59,25.70
2016,10,14,05,00,29.00
2016,10,14,05,01,24.20
2016,10,14,05,02,25.70
2016,10,14,05,03,25.70
2016,10,14,05,04,30.60
2016,10,14,05,05,32.20
2016,10,14,05,06,30.60
2016,10,14,05,07,27.40
2016,10,14,05,08,30.60
2016,10,14,05,09,30.60
2016,10,14,05,10,25.70
2016,10,14,05,11,22.50
2016,10,14,05,12,14.50
2016,10,14,05,13,20.90
2016,10,14,05,14,25.70
2016,10,14,05,15,25.70
2016,10,14,05,16,29.00
2016,10,14,05,17,24.20
2016,10,14,05,18,27.40
2016,10,14,05,19,25.70
2016,10,14,05,20,24.20
2016,10,14,05,21,30.60
2016,10,14,05,22,27.40
2016,10,14,05,23,25.70
2016,10,14,05,24,29.00
2016,10,14,05,25,22.50
2016,10,14,05,26,11.30
2016,10,14,05,27,6.40
2016,10,14,05,28,16.10
2016,10,14,05,29,17.70
2016,10,14,05,30,24.20
2016,10,14,05,31,14.50
2016,10,14,05,32,11.30
2016,10,14,05,33,14.50
2016,10,14,05,34,22.50
2016,10,14,05,35,17.70
2016,10,14,05,36,11.30
2016,10,14,05,37,11.30
2016,10,14,05,38,11.30
2016,10,14,05,39,19.30
2016,10,14,05,40,19.30
2016,10,14,05,41,12.90
2016,10,14,05,42,11.30
2016,10,14,05,43,25.70
2016,10,14,05,44,25.70
2016,10,14,05,45,19.30
2016,10,14,05,46,14.50
2016,10,14,05,47,19.30
2016,10,14,05,48,19.30
2016,10,14,05,49,17.70
2016,10,14,05,50,24.20
2016,10,14,05,51,19.30
2016,10,14,05,52,17.70
2016,10,14,05,53,24.20
2016,10,14,05,54,12.90
2016,10,14,05,55,19.30
2016,10,14,05,56,19.30
2016,10,14,05,57,12.90
2016,10,14,05,58,17.70
2016,10,14,05,59,19.30
2016,10,14,06,00,24.20
2016,10,14,06,01,19.30
2016,10,14,06,02,19.30
2016,10,14,06,03,14.50
2016,10,14,06,04,19.30
2016,10,14,06,05,22.50
2016,10,14,06,06,17.70
2016,10,14,06,07,17.70
2016,10,14,06,08,22.50
2016,10,14,06,09,22.50
2016,10,14,06,10,19.30
2016,10,14,06,11,17.70
2016,10,14,06,12,24.20
2016,10,14,06,13,27.40
2016,10,14,06,14,19.30
2016,10,14,06,15,20.90
2016,10,14,06,16,19.30
2016,10,14,06,17,22.50
2016,10,14,06,18,22.50
2016,10,14,06,19,22.50
2016,10,14,06,20,24.20
2016,10,14,06,21,22.50
2016,10,14,06,22,32.20
2016,10,14,06,23,32.20
2016,10,14,06,24,27.40
2016,10,14,06,25,22.50
2016,10,14,06,26,32.20
2016,10,14,06,27,35.40
2016,10,14,06,28,30.60
2016,10,14,06,29,32.20
2016,10,14,06,30,27.40
2016,10,14,06,31,32.20
2016,10,14,06,32,27.40
2016,10,14,06,33,30.60
2016,10,14,06,34,29.00
2016,10,14,06,35,24.20
2016,10,14,06,36,27.40
2016,10,14,06,37,24.20
2016,10,14,06,38,27.40
2016,10,14,06,39,25.70
2016,10,14,06,40,29.00
2016,10,14,06,41,33.80
2016,10,14,06,42,27.40
2016,10,14,06,43,35.40
2016,10,14,06,44,30.60
2016,10,14,06,45,30.60
2016,10,14,06,46,32.20
2016,10,14,06,47,32.20
2016,10,14,06,48,25.70
2016,10,14,06,49,27.40
2016,10,14,06,50,29.00
2016,10,14,06,51,24.20
2016,10,14,06,52,20.90
2016,10,14,06,53,29.00
2016,10,14,06,54,22.50
2016,10,14,06,55,32.20
2016,10,14,06,56,25.70
2016,10,14,06,57,17.70
2016,10,14,06,58,25.70
2016,10,14,06,59,29.00
2016,10,14,07,00,30.60
2016,10,14,07,01,20.90
2016,10,14,07,02,9.60
2016,10,14,07,03,8.10
2016,10,14,07,04,24.20
2016,10,14,07,05,24.20
2016,10,14,07,06,32.20
2016,10,14,07,07,20.90
2016,10,14,07,08,24.20
2016,10,14,07,09,25.70
2016,10,14,07,10,25.70
2016,10,14,07,11,32.20
2016,10,14,07,12,30.60
2016,10,14,07,13,30.60
2016,10,14,07,14,41.80
2016,10,14,07,15,33.80
2016,10,14,07,16,30.60
2016,10,14,07,17,40.20
2016,10,14,07,18,32.20
2016,10,14,07,19,30.60
2016,10,14,07,20,30.60
2016,10,14,07,21,33.80
2016,10,14,07,22,30.60
2016,10,14,07,23,25.70
2016,10,14,07,24,27.40
2016,10,14,07,25,33.80
2016,10,14,07,26,20.90
2016,10,14,07,27,19.30
2016,10,14,07,28,25.70
2016,10,14,07,29,20.90
2016,10,14,07,30,22.50
2016,10,14,07,31,22.50
2016,10,14,07,32,19.30
2016,10,14,07,33,20.90
2016,10,14,07,34,24.20
2016,10,14,07,35,19.30
2016,10,14,07,36,27.40
2016,10,14,07,37,25.70
2016,10,14,07,38,25.70
2016,10,14,07,39,30.60
2016,10,14,07,40,38.60
2016,10,14,07,41,33.80
2016,10,14,07,42,30.60
2016,10,14,07,43,32.20
2016,10,14,07,44,30.60
2016,10,14,07,45,30.60
2016,10,14,07,46,25.70
2016,10,14,07,47,22.50
2016,10,14,07,48,35.40
2016,10,14,07,49,33.80
2016,10,14,07,50,35.40
2016,10,14,07,51,30.60
2016,10,14,07,52,27.40
2016,10,14,07,53,30.60
2016,10,14,07,54,25.70
2016,10,14,07,55,27.40
2016,10,14,07,56,27.40
2016,10,14,07,57,27.40
2016,10,14,07,58,29.00
2016,10,14,07,59,25.70
2016,10,14,08,00,33.80
2016,10,14,08,01,25.70
2016,10,14,08,02,37.00
2016,10,14,08,03,35.40
2016,10,14,08,04,43.50
2016,10,14,08,05,40.20
2016,10,14,08,06,45.10
2016,10,14,08,07,45.10
2016,10,14,08,08,41.80
2016,10,14,08,09,40.20
2016,10,14,08,10,37.00
2016,10,14,08,11,35.40
2016,10,14,08,12,35.40
2016,10,14,08,13,37.00
2016,10,14,08,14,43.50
2016,10,14,08,15,41.80
2016,10,14,08,16,40.20
2016,10,14,08,17,40.20
2016,10,14,08,18,45.10
2016,10,14,08,19,38.60
2016,10,14,08,20,40.20
2016,10,14,08,21,32.20
2016,10,14,08,22,37.00
2016,10,14,08,23,40.20
2016,10,14,08,24,37.00
2016,10,14,08,25,43.50
2016,10,14,08,26,35.40
2016,10,14,08,27,40.20
2016,10,14,08,28,38.60
2016,10,14,08,29,35.40
2016,10,14,08,30,29.00
2016,10,14,08,31,22.50
2016,10,14,08,32,29.00
2016,10,14,08,33,25.70
2016,10,14,08,34,24.20
2016,10,14,08,35,27.40
2016,10,14,08,36,29.00
2016,10,14,08,37,30.60
2016,10,14,08,38,32.20
2016,10,14,08,39,30.60
2016,10,14,08,40,29.00
2016,10,14,08,41,24.20
2016,10,14,08,42,25.70
2016,10,14,08,43,20.90
2016,10,14,08,44,22.50
2016,10,14,08,45,22.50
2016,10,14,08,46,27.40
2016,10,14,08,47,29.00
2016,10,14,08,48,30.60
2016,10,14,08,49,33.80
2016,10,14,08,50,29.00
2016,10,14,08,51,27.40
2016,10,14,08,52,33.80
2016,10,14,08,53,29.00
2016,10,14,08,54,25.70
2016,10,14,08,55,30.60
2016,10,14,08,56,33.80
2016,10,14,08,57,11.30
2016,10,14,08,58,22.50
2016,10,14,08,59,19.30
2016,10,14,09,00,22.50
2016,10,14,09,01,19.30
2016,10,14,09,02,20.90
2016,10,14,09,03,17.70
2016,10,14,09,04,19.30
2016,10,14,09,05,19.30
2016,10,14,09,06,19.30
2016,10,14,09,07,20.90
2016,10,14,09,08,22.50
2016,10,14,09,09,16.10
2016,10,14,09,10,12.90
2016,10,14,09,11,14.50
2016,10,14,09,12,9.60
2016,10,14,09,13,11.30
2016,10,14,09,14,11.30
2016,10,14,09,15,9.60
2016,10,14,09,16,8.10
2016,10,14,09,17,11.30
2016,10,14,09,18,9.60
2016,10,14,09,19,9.60
2016,10,14,09,20,11.30
2016,10,14,09,21,11.30
2016,10,14,09,22,9.60
2016,10,14,09,23,16.10
2016,10,14,09,24,11.30
2016,10,14,09,25,9.60
2016,10,14,09,26,14.50
2016,10,14,09,27,16.10
2016,10,14,09,28,14.50
2016,10,14,09,29,12.90
2016,10,14,09,30,11.30
2016,10,14,09,31,14.50
2016,10,14,09,32,14.50
2016,10,14,09,33,16.10
2016,10,14,09,34,12.90
2016,10,14,09,35,12.90
2016,10,14,09,36,14.50
2016,10,14,09,37,11.30
2016,10,14,09,38,11.30
2016,10,14,09,39,12.90
2016,10,14,09,40,12.90
2016,10,14,09,41,8.10
2016,10,14,09,42,20.90
2016,10,14,09,43,19.30
2016,10,14,09,44,24.20
2016,10,14,09,45,22.50
2016,10,14,09,46,19.30
2016,10,14,09,47,29.00
2016,10,14,09,48,24.20
2016,10,14,09,49,11.30
2016,10,14,09,50,11.30
2016,10,14,09,51,12.90
2016,10,14,09,52,12.90
2016,10,14,09,53,17.70
2016,10,14,09,54,19.30
2016,10,14,09,55,14.50
2016,10,14,09,56,14.50
2016,10,14,09,57,17.70
2016,10,14,09,58,14.50
2016,10,14,09,59,20.90
2016,10,14,10,00,14.50
2016,10,14,10,01,14.50
2016,10,14,10,02,14.50
2016,10,14,10,03,19.30
2016,10,14,10,04,11.30
2016,10,14,10,05,22.50
2016,10,14,10,06,22.50
2016,10,14,10,07,22.50
2016,10,14,10,08,12.90
2016,10,14,10,09,17.70
2016,10,14,10,10,25.70
2016,10,14,10,11,20.90
2016,10,14,10,12,30.60
2016,10,14,10,13,32.20
2016,10,14,10,14,22.50
2016,10,14,10,15,24.20
2016,10,14,10,16,22.50
2016,10,14,10,17,32.20
2016,10,14,10,18,20.90
2016,10,14,10,19,20.90
2016,10,14,10,20,33.80
2016,10,14,10,21,32.20
2016,10,14,10,22,29.00
2016,10,14,10,23,25.70
2016,10,14,10,24,32.20
2016,10,14,10,25,38.60
2016,10,14,10,26,29.00
2016,10,14,10,27,35.40
2016,10,14,10,28,35.40
2016,10,14,10,29,33.80
2016,10,14,10,30,22.50
2016,10,14,10,31,33.80
2016,10,14,10,32,37.00
2016,10,14,10,33,32.20
2016,10,14,10,34,35.40
2016,10,14,10,35,33.80
2016,10,14,10,36,29.00
2016,10,14,10,37,35.40
2016,10,14,10,38,29.00
2016,10,14,10,39,22.50
2016,10,14,10,40,25.70
2016,10,14,10,41,32.20
2016,10,14,10,42,29.00
2016,10,14,10,43,32.20
2016,10,14,10,44,22.50
2016,10,14,10,45,38.60
2016,10,14,10,46,35.40
2016,10,14,10,47,25.70
2016,10,14,10,48,37.00
2016,10,14,10,49,30.60
2016,10,14,10,50,33.80
2016,10,14,10,51,32.20
2016,10,14,10,52,33.80
2016,10,14,10,53,24.20
2016,10,14,10,54,32.20
2016,10,14,10,55,22.50
2016,10,14,10,56,24.20
2016,10,14,10,57,24.20
2016,10,14,10,58,17.70
2016,10,14,10,59,12.90
2016,10,14,11,00,30.60
2016,10,14,11,01,30.60
2016,10,14,11,02,24.20
2016,10,14,11,03,24.20
2016,10,14,11,04,22.50
2016,10,14,11,05,20.90
2016,10,14,11,06,24.20
2016,10,14,11,07,32.20
2016,10,14,11,08,33.80
2016,10,14,11,09,32.20
2016,10,14,11,10,37.00
2016,10,14,11,11,33.80
2016,10,14,11,12,30.60
2016,10,14,11,13,38.60
2016,10,14,11,14,24.20
2016,10,14,11,15,24.20
2016,10,14,11,16,35.40
2016,10,14,11,17,43.50
2016,10,14,11,18,33.80
2016,10,14,11,19,32.20
2016,10,14,11,20,30.60
2016,10,14,11,21,25.70
2016,10,14,11,22,29.00
2016,10,14,11,23,29.00
2016,10,14,11,24,32.20
2016,10,14,11,25,32.20
2016,10,14,11,26,33.80
2016,10,14,11,27,30.60
2016,10,14,11,28,33.80
2016,10,14,11,29,37.00
2016,10,14,11,30,25.70
2016,10,14,11,31,38.60
2016,10,14,11,32,38.60
2016,10,14,11,33,25.70
2016,10,14,11,34,45.10
2016,10,14,11,35,32.20
2016,10,14,11,36,40.20
2016,10,14,11,37,40.20
2016,10,14,11,38,35.40
2016,10,14,11,39,30.60
2016,10,14,11,40,33.80
2016,10,14,11,41,33.80
2016,10,14,11,42,33.80
2016,10,14,11,43,33.80
2016,10,14,11,44,40.20
2016,10,14,11,45,19.30
2016,10,14,11,46,35.40
2016,10,14,11,47,29.00
2016,10,14,11,48,38.60
2016,10,14,11,49,27.40
2016,10,14,11,50,32.20
2016,10,14,11,51,25.70
2016,10,14,11,52,22.50
2016,10,14,11,53,35.40
2016,10,14,11,54,32.20
2016,10,14,11,55,24.20
2016,10,14,11,56,29.00
2016,10,14,11,57,20.90
2016,10,14,11,58,22.50
2016,10,14,11,59,24.20
2016,10,14,12,00,24.20
2016,10,14,12,01,35.40
2016,10,14,12,02,32.20
2016,10,14,12,03,20.90
2016,10,14,12,04,37.00
2016,10,14,12,05,33.80
2016,10,14,12,06,40.20
2016,10,14,12,07,25.70
2016,10,14,12,08,30.60
2016,10,14,12,09,33.80
2016,10,14,12,10,40.20
2016,10,14,12,11,30.60
2016,10,14,12,12,19.30
2016,10,14,12,13,32.20
2016,10,14,12,14,35.40
2016,10,14,12,15,27.40
2016,10,14,12,16,32.20
2016,10,14,12,17,29.00
2016,10,14,12,18,24.20
2016,10,14,12,19,43.50
2016,10,14,12,20,30.60
2016,10,14,12,21,27.40
2016,10,14,12,22,35.40
2016,10,14,12,23,29.00
2016,10,14,12,24,30.60
2016,10,14,12,25,29.00
2016,10,14,12,26,30.60
2016,10,14,12,27,40.20
2016,10,14,12,28,30.60
2016,10,14,12,29,29.00
2016,10,14,12,30,29.00
2016,10,14,12,31,32.20
2016,10,14,12,32,20.90
2016,10,14,12,33,45.10
2016,10,14,12,34,32.20
2016,10,14,12,35,25.70
2016,10,14,12,36,46.70
2016,10,14,12,37,37.00
2016,10,14,12,38,33.80
2016,10,14,12,39,24.20
2016,10,14,12,40,38.60
2016,10,14,12,41,32.20
2016,10,14,12,42,30.60
2016,10,14,12,43,30.60
2016,10,14,12,44,30.60
2016,10,14,12,45,48.30
2016,10,14,12,46,35.40
2016,10,14,12,47,33.80
2016,10,14,12,48,27.40
2016,10,14,12,49,33.80
2016,10,14,12,50,35.40
2016,10,14,12,51,38.60
2016,10,14,12,52,40.20
2016,10,14,12,53,40.20
2016,10,14,12,54,32.20
2016,10,14,12,55,33.80
2016,10,14,12,56,38.60
2016,10,14,12,57,32.20
2016,10,14,12,58,38.60
2016,10,14,12,59,30.60
2016,10,14,13,00,43.50
2016,10,14,13,01,38.60
2016,10,14,13,02,46.70
2016,10,14,13,03,54.70
2016,10,14,13,04,43.50
2016,10,14,13,05,29.00
2016,10,14,13,06,35.40
2016,10,14,13,07,27.40
2016,10,14,13,08,46.70
2016,10,14,13,09,49.90
2016,10,14,13,10,20.90
2016,10,14,13,11,27.40
2016,10,14,13,12,37.00
2016,10,14,13,13,32.20
2016,10,14,13,14,27.40
2016,10,14,13,15,37.00
2016,10,14,13,16,32.20
2016,10,14,13,17,29.00
2016,10,14,13,18,40.20
2016,10,14,13,19,48.30
2016,10,14,13,20,33.80
2016,10,14,13,21,38.60
2016,10,14,13,22,38.60
2016,10,14,13,23,32.20
2016,10,14,13,24,37.00
2016,10,14,13,25,40.20
2016,10,14,13,26,33.80
2016,10,14,13,27,45.10
2016,10,14,13,28,43.50
2016,10,14,13,29,45.10
2016,10,14,13,30,37.00
2016,10,14,13,31,43.50
2016,10,14,13,32,40.20
2016,10,14,13,33,43.50
2016,10,14,13,34,40.20
2016,10,14,13,35,30.60
2016,10,14,13,36,40.20
2016,10,14,13,37,37.00
2016,10,14,13,38,22.50
2016,10,14,13,39,41.80
2016,10,14,13,40,35.40
2016,10,14,13,41,38.60
2016,10,14,13,42,37.00
2016,10,14,13,43,37.00
2016,10,14,13,44,40.20
2016,10,14,13,45,45.10
2016,10,14,13,46,37.00
2016,10,14,13,47,32.20
2016,10,14,13,48,38.60
2016,10,14,13,49,46.70
2016,10,14,13,50,35.40
2016,10,14,13,51,43.50
2016,10,14,13,52,43.50
2016,10,14,13,53,41.80
2016,10,14,13,54,41.80
2016,10,14,13,55,46.70
2016,10,14,13,56,38.60
2016,10,14,13,57,33.80
2016,10,14,13,58,45.10
2016,10,14,13,59,30.60
2016,10,14,14,00,19.30
2016,10,14,14,01,35.40
2016,10,14,14,02,35.40
2016,10,14,14,03,40.20
2016,10,14,14,04,40.20
2016,10,14,14,05,48.30
2016,10,14,14,06,33.80
2016,10,14,14,07,45.10
2016,10,14,14,08,41.80
2016,10,14,14,09,37.00
2016,10,14,14,10,33.80
2016,10,14,14,11,35.40
2016,10,14,14,12,41.80
2016,10,14,14,13,38.60
2016,10,14,14,14,33.80
2016,10,14,14,15,45.10
2016,10,14,14,16,45.10
2016,10,14,14,17,40.20
2016,10,14,14,18,32.20
2016,10,14,14,19,37.00
2016,10,14,14,20,38.60
2016,10,14,14,21,35.40
2016,10,14,14,22,40.20
2016,10,14,14,23,35.40
2016,10,14,14,24,32.20
2016,10,14,14,25,46.70
2016,10,14,14,26,37.00
2016,10,14,14,27,37.00
2016,10,14,14,28,41.80
2016,10,14,14,29,38.60
2016,10,14,14,30,29.00
2016,10,14,14,31,41.80
2016,10,14,14,32,38.60
2016,10,14,14,33,41.80
2016,10,14,14,34,35.40
2016,10,14,14,35,25.70
2016,10,14,14,36,38.60
2016,10,14,14,37,37.00
2016,10,14,14,38,37.00
2016,10,14,14,39,37.00
2016,10,14,14,40,32.20
2016,10,14,14,41,45.10
2016,10,14,14,42,38.60
2016,10,14,14,43,37.00
2016,10,14,14,44,33.80
2016,10,14,14,45,30.60
2016,10,14,14,46,29.00
2016,10,14,14,47,29.00
2016,10,14,14,48,37.00
2016,10,14,14,49,32.20
2016,10,14,14,50,30.60
2016,10,14,14,51,29.00
2016,10,14,14,52,29.00
2016,10,14,14,53,22.50
2016,10,14,14,54,32.20
2016,10,14,14,55,25.70
2016,10,14,14,56,14.50
2016,10,14,14,57,17.70
2016,10,14,14,58,27.40
2016,10,14,14,59,25.70
2016,10,14,15,00,29.00
2016,10,14,15,01,25.70
2016,10,14,15,02,25.70
2016,10,14,15,03,17.70
2016,10,14,15,04,14.50
2016,10,14,15,05,19.30
2016,10,14,15,06,14.50
2016,10,14,15,07,22.50
2016,10,14,15,08,20.90
2016,10,14,15,09,17.70
2016,10,14,15,10,14.50
2016,10,14,15,11,12.90
2016,10,14,15,12,17.70
2016,10,14,15,13,11.30
2016,10,14,15,14,8.10
2016,10,14,15,15,11.30
2016,10,14,15,16,17.70
2016,10,14,15,17,14.50
2016,10,14,15,18,19.30
2016,10,14,15,19,19.30
2016,10,14,15,20,22.50
2016,10,14,15,21,22.50
2016,10,14,15,22,25.70
2016,10,14,15,23,19.30
2016,10,14,15,24,19.30
2016,10,14,15,25,25.70
2016,10,14,15,26,22.50
2016,10,14,15,27,29.00
2016,10,14,15,28,25.70
2016,10,14,15,29,29.00
2016,10,14,15,30,29.00
2016,10,14,15,31,33.80
2016,10,14,15,32,25.70
2016,10,14,15,33,17.70
2016,10,14,15,34,24.20
2016,10,14,15,35,27.40
2016,10,14,15,36,27.40
2016,10,14,15,37,29.00
2016,10,14,15,38,22.50
2016,10,14,15,39,20.90
2016,10,14,15,40,24.20
2016,10,14,15,41,30.60
2016,10,14,15,42,35.40
2016,10,14,15,43,22.50
2016,10,14,15,44,25.70
2016,10,14,15,45,20.90
2016,10,14,15,46,22.50
2016,10,14,15,47,29.00
2016,10,14,15,48,14.50
2016,10,14,15,49,14.50
2016,10,14,15,50,20.90
2016,10,14,15,51,27.40
2016,10,14,15,52,24.20
2016,10,14,15,53,24.20
2016,10,14,15,54,25.70
2016,10,14,15,55,22.50
2016,10,14,15,56,29.00
2016,10,14,15,57,24.20
2016,10,14,15,58,19.30
2016,10,14,15,59,22.50
2016,10,14,16,00,20.90
2016,10,14,16,01,17.70
2016,10,14,16,02,17.70
2016,10,14,16,03,22.50
2016,10,14,16,04,16.10
2016,10,14,16,05,17.70
2016,10,14,16,06,12.90
2016,10,14,16,07,22.50
2016,10,14,16,08,16.10
2016,10,14,16,09,17.70
2016,10,14,16,10,14.50
2016,10,14,16,11,20.90
2016,10,14,16,12,9.60
2016,10,14,16,13,22.50
2016,10,14,16,14,19.30
2016,10,14,16,15,19.30
2016,10,14,16,16,20.90
2016,10,14,16,17,33.80
2016,10,14,16,18,29.00
2016,10,14,16,19,25.70
2016,10,14,16,20,12.90
2016,10,14,16,21,8.10
2016,10,14,16,22,11.30
2016,10,14,16,23,11.30
2016,10,14,16,24,11.30
2016,10,14,16,25,9.60
2016,10,14,16,26,8.10
2016,10,14,16,27,12.90
2016,10,14,16,28,8.10
2016,10,14,16,29,9.60
2016,10,14,16,30,11.30
2016,10,14,16,31,6.40
2016,10,14,16,32,6.40
2016,10,14,16,33,8.10
2016,10,14,16,34,6.40
2016,10,14,16,35,8.10
2016,10,14,16,36,4.80
2016,10,14,16,37,9.60
2016,10,14,16,38,11.30
2016,10,14,16,39,11.30
2016,10,14,16,40,6.40
2016,10,14,16,41,11.30
2016,10,14,16,42,20.90
2016,10,14,16,43,29.00
2016,10,14,16,44,11.30
2016,10,14,16,45,3.20
2016,10,14,16,46,9.60
2016,10,14,16,47,9.60
2016,10,14,16,48,9.60
2016,10,14,16,49,4.80
2016,10,14,16,50,6.40
2016,10,14,16,51,8.10
2016,10,14,16,52,6.40
2016,10,14,16,53,9.60
2016,10,14,16,54,11.30
2016,10,14,16,55,9.60
2016,10,14,16,56,11.30
2016,10,14,16,57,11.30
2016,10,14,16,58,9.60
2016,10,14,16,59,9.60
2016,10,14,17,00,9.60
2016,10,14,17,01,8.10
2016,10,14,17,02,6.40
2016,10,14,17,03,9.60
2016,10,14,17,04,9.60
2016,10,14,17,05,9.60
2016,10,14,17,06,4.80
2016,10,14,17,07,8.10
2016,10,14,17,08,8.10
2016,10,14,17,09,6.40
2016,10,14,17,10,6.40
2016,10,14,17,11,8.10
2016,10,14,17,12,8.10
2016,10,14,17,13,6.40
2016,10,14,17,14,22.50
2016,10,14,17,15,17.70
2016,10,14,17,16,17.70
2016,10,14,17,17,11.30
2016,10,14,17,18,11.30
2016,10,14,17,19,11.30
2016,10,14,17,20,8.10
2016,10,14,17,21,6.40
2016,10,14,17,22,9.60
2016,10,14,17,23,11.30
2016,10,14,17,24,9.60
2016,10,14,17,25,8.10
2016,10,14,17,26,8.10
2016,10,14,17,27,6.40
2016,10,14,17,28,6.40
2016,10,14,17,33,6.40